NIEUW!!! Volg onze weer- en natuurfoto's op Instagram @ weerstationmaaseik.be

WS Maaseik 1 Meer informatie WS Maaseik 1


WS Maaseik 2 Meer informatie WS Maaseik 2


Regen radar Meer informatie rain snow radar


Bezoek onze andere website:

Vorige versie
weerstation Maaseik


Bezoek ook eens deze sites:

Weerstation Geleen



Het weer levert geen direct gevaar op.    Er zijn geen waarschuwingen afgegeven.

15 daagse weersverwachting Meyrin (CH)

  • Overzicht
  • Per uur
  • 15 dagen
  • Extra
  • Vergelijk
  • Kaarten
  • Dagkaart
  • Meer »
  • Info
  • Statistieken
  • Directe link
    Temp 6h Neerslag Wind  
 07:22     19:36    Daglengte: 12:14 Vandaag
14:00
22°
 
2
20:00
19°
1.2 mm
1
 07:23     19:34    Daglengte: 12:11 Morgen
02:00
17°
3.6 mm
1
08:00
16°
1.0 mm
1
14:00
21°
1.1 mm
2
20:00
19°
0.7 mm
1
 07:25     19:32    Daglengte: 12:07 Dinsdag 22 Sep
02:00
16°
 
1
08:00
15°
 
1
14:00
21°
1.7 mm
2
20:00
17°
4.1 mm
2
 07:26     19:30    Daglengte: 12:04 Woensdag 23 Sep
02:00
15°
 
2
08:00
15°
29.4 mm
2
Locatie info
Region: Genf
Latitude: 46.2285°N
Longitude: 6.0722°E
445 masl
Postcode: 1217
Temp/Neerslag /Baro Onweer/Dauwpunt
    Temp Baro 1h Neerslag Dauwpunt Wind UV Bewolking  
 07:22     19:36    Daglengte: 12:14 Vandaag
11:00
20°
1014.8 hPa   15.2°
1
Windvlaag: 0.2 m/s
41%
12:00
21°
1014.6 hPa
23%
15.4°
1
Windvlaag: 0.2 m/s
45%
13:00
22°
1014.2 hPa
39%
15.0°
1
Windvlaag: 0.3 m/s
49%
14:00
22°
1013.7 hPa
43%
14.8°
2
Windvlaag: -1 m/s
57%
15:00
22°
1013.6 hPa
74%
15.1°
1
Windvlaag: -1.1 m/s
61%
16:00
22°
1013.3 hPa 0.3 mm
81%
15.7°
1
Windvlaag: -0.2 m/s
69% warningclass
17:00
22°
1013.2 hPa
77%
15.5°
1
Windvlaag: 0.4 m/s
78%
18:00
21°
1013.2 hPa
79%
15.1°
1
Windvlaag: 1.6 m/s
77%
19:00
21°
1013.6 hPa
37%
15.4°
2
Windvlaag: 1.6 m/s
72%
20:00
19°
1014.1 hPa 0.8 mm
82%
15.5°
1
Windvlaag: 1.4 m/s
75%
21:00
18°
1014.7 hPa 0.7 mm
82%
15.8°
2
Windvlaag: 1.4 m/s
73%
22:00
18°
1014.9 hPa 0.5 mm
46%
15.8°
1
Windvlaag: 1.6 m/s
71%
23:00
17°
1015.0 hPa
81%
15.4°
1
Windvlaag: 0.9 m/s
73% warningclass
 07:23     19:34    Daglengte: 12:11 Morgen
00:00
17°
1015.2 hPa 0.9 mm
80%
15.4°
1
Windvlaag: 0.9 m/s
73% warningclass
01:00
17°
1015.1 hPa 0.9 mm
76%
15.2°
2
Windvlaag: 0.8 m/s
70%
02:00
17°
1015.1 hPa 0.6 mm
74%
14.8°
1
Windvlaag: 0.9 m/s
69%
03:00
16°
1015.0 hPa 0.5 mm
76%
15.0°
1
Windvlaag: 1 m/s
66%
04:00
16°
1014.9 hPa 0.5 mm
77%
14.7°
1
Windvlaag: 1 m/s
71%
05:00
16°
1014.7 hPa
78%
14.6°
1
Windvlaag: 0.7 m/s
72%
06:00
16°
1014.8 hPa
76%
14.4°
1
Windvlaag: 0.7 m/s
72%
07:00
15°
1015.1 hPa
76%
14.2°
1
Windvlaag: 0.6 m/s
73%
08:00
16°
1015.4 hPa
77%
14.1°
1
Windvlaag: 0.7 m/s
75%
09:00
17°
1015.6 hPa
78%
14.6°
1
Windvlaag: 0.6 m/s
74%
10:00
18°
1015.8 hPa
81%
15.0°
1
Windvlaag: 0.5 m/s
73%
11:00
19°
1015.9 hPa 0.7 mm
81%
15.1°
1
Windvlaag: 0.7 m/s
74%
12:00
20°
1015.7 hPa 0.5 mm
77%
15.2°
1
Windvlaag: 1.2 m/s
62%
13:00
21°
1015.2 hPa
69%
14.6°
2
Windvlaag: 1.5 m/s
56%
14:00
21°
1014.8 hPa
27%
14.4°
2
Windvlaag: 1.7 m/s
55%
15:00
21°
1014.4 hPa
27%
14.1°
2
Windvlaag: 1.8 m/s
51%
16:00
22°
1014.0 hPa
33%
14.1°
2
Windvlaag: 1.8 m/s
51%
17:00
21°
1013.9 hPa 0.7 mm
73%
14.2°
2
Windvlaag: 1.7 m/s
66% warningclass
18:00
21°
1014.1 hPa
71%
14.5°
2
Windvlaag: 1.3 m/s
70%
19:00
19°
1014.4 hPa
27%
15.5°
1
Windvlaag: 1.6 m/s
71%
20:00
19°
1014.6 hPa
22%
15.3°
1
Windvlaag: 1.7 m/s
74%
21:00
19°
1014.9 hPa
57%
15.1°
1
Windvlaag: 1.4 m/s
76%
22:00
18°
1014.9 hPa
56%
14.7°
1
Windvlaag: 0.8 m/s
52%
23:00
17°
1015.0 hPa
56%
14.7°
1
Windvlaag: 1.1 m/s
67%
 07:25     19:32    Daglengte: 12:07 Dinsdag 22 Sep
00:00
16°
1015.0 hPa
21%
14.5°
1
Windvlaag: 1.1 m/s
57%
01:00
16°
1014.9 hPa
21%
14.3°
1
Windvlaag: 0.7 m/s
47%
02:00
16°
1014.7 hPa
19%
14.1°
1
Windvlaag: 0.7 m/s
46%
03:00
15°
1014.6 hPa
18%
14.0°
1
Windvlaag: 0.7 m/s
32%
04:00
15°
1014.4 hPa
21%
13.9°
1
Windvlaag: 0.8 m/s
25%
05:00
15°
1014.3 hPa
79%
13.2°
1
Windvlaag: 0.8 m/s
33%
06:00
14°
1014.2 hPa
33%
13.1°
1
Windvlaag: 0.7 m/s
47%
07:00
14°
1014.1 hPa
31%
13.0°
1
Windvlaag: 0.4 m/s
54%
08:00
15°
1014.2 hPa
34%
13.3°
1
Windvlaag: 0.2 m/s
46%
09:00
16°
1014.2 hPa
32%
13.6°
1
Windvlaag: 0.7 m/s
39%
10:00
17°
1014.1 hPa
27%
14.1°
1
Windvlaag: 0.8 m/s
64%
11:00
18°
1014.0 hPa
28%
13.8°
1
Windvlaag: 0.8 m/s
81%
12:00
19°
1013.6 hPa
39%
13.8°
2
Windvlaag: -0.1 m/s
66%
13:00
20°
1012.8 hPa
45%
14.2°
2
Windvlaag: -0.6 m/s
78%
14:00
21°
1012.3 hPa 1.7 mm
93%
14.0°
2
Windvlaag: -0.8 m/s
80%
15:00
20°
1011.9 hPa
99%
14.7°
3
Windvlaag: 1.4 m/s
85%
16:00
20°
1011.2 hPa
97%
14.2°
2
Windvlaag: 1.8 m/s
86%
17:00
20°
1011.1 hPa 2.7 mm
99%
14.0°
3
Windvlaag: 2.1 m/s
75% warningclass
18:00
19°
1010.8 hPa 1.3 mm
96%
14.6°
2
Windvlaag: 2.2 m/s
77%
19:00
18°
1010.9 hPa
86%
14.6°
2
Windvlaag: 2.7 m/s
79%
20:00
17°
1011.2 hPa
29%
14.7°
2
Windvlaag: 2.9 m/s
85%
21:00
16°
1011.3 hPa
23%
14.4°
2
Windvlaag: 4.9 m/s
92%
22:00
16°
1011.3 hPa
22%
14.1°
1
Windvlaag: 2.5 m/s
91%
23:00
16°
1011.3 hPa
26%
14.0°
1
Windvlaag: 1.3 m/s
85%
 07:26     19:30    Daglengte: 12:04 Woensdag 23 Sep
00:00
16°
1011.3 hPa
33%
13.8°
1
Windvlaag: 1.2 m/s
84%
01:00
15°
1011.2 hPa
89%
13.7°
2
Windvlaag: 1.8 m/s
81%
02:00
15°
1011.2 hPa
95%
13.6°
2
Windvlaag: 1.2 m/s
83%
03:00
15°
1010.9 hPa 5.2 mm
100%
13.5°
2
Windvlaag: 5.6 m/s
91%
04:00
15°
1010.7 hPa
99%
13.5°
2
Windvlaag: 5.5 m/s
93%
05:00
15°
1010.5 hPa 5.9 mm
99%
13.4°
2
Windvlaag: 5.5 m/s
89%
06:00
15°
1010.4 hPa 6.1 mm
100%
13.2°
2
Windvlaag: 6 m/s
92%
07:00
15°
1010.2 hPa 6.0 mm
100%
13.2°
2
Windvlaag: 6 m/s
86%
08:00
15°
1010.2 hPa 6.1 mm
100%
13.2°
2
Windvlaag: 0.8 m/s
83%
09:00
16°
1009.9 hPa 17.4 mm
100%
13.6°
2
Windvlaag: 5.1 m/s
82%
10:00
16°
1009.7 hPa 17.5 mm
100%
13.8°
3
Windvlaag: 5.2 m/s
74%
Temp/Neerslag /Baro Onweer/Dauwpunt
    Temp Baro Neerslag Dauwpunt Wind Bewolking  
 07:22     19:36    Daglengte: 12:14 Vandaag
11:00
20°
1014.8 hPa   15.2°
1
41%
14:00
22°
1013.7 hPa   14.8°
2
57%
17:00
22°
1013.2 hPa 0.3 mm 15.5°
1
78% warningclass
20:00
19°
1014.1 hPa 0.8 mm 15.5°
1
75%
23:00
17°
1015.0 hPa 1.2 mm 15.4°
1
73% warningclass
 07:23     19:34    Daglengte: 12:11 Morgen
02:00
17°
1015.1 hPa 2.3 mm 14.8°
1
69%
05:00
16°
1014.7 hPa 1.0 mm 14.6°
1
72%
08:00
16°
1015.4 hPa   14.1°
1
75%
11:00
19°
1015.9 hPa 0.7 mm 15.1°
1
74%
14:00
21°
1014.8 hPa 0.5 mm 14.4°
2
55%
17:00
21°
1013.9 hPa 0.7 mm 14.2°
2
66% warningclass
20:00
19°
1014.6 hPa   15.3°
1
74%
23:00
17°
1015.0 hPa   14.7°
1
67%
 07:25     19:32    Daglengte: 12:07 Dinsdag 22 Sep
02:00
16°
1014.7 hPa   14.1°
1
46%
05:00
15°
1014.3 hPa   13.2°
1
33%
08:00
15°
1014.2 hPa   13.3°
1
46%
11:00
18°
1014.0 hPa   13.8°
1
81%
14:00
21°
1012.3 hPa 1.7 mm 14.0°
2
80%
17:00
20°
1011.1 hPa 2.7 mm 14.0°
3
75% warningclass
20:00
17°
1011.2 hPa 1.3 mm 14.7°
2
85%
23:00
16°
1011.3 hPa   14.0°
1
85%
 07:26     19:30    Daglengte: 12:04 Woensdag 23 Sep
02:00
15°
1011.2 hPa   13.6°
2
83%
05:00
15°
1010.5 hPa 11.2 mm 13.4°
2
89%
08:00
15°
1010.2 hPa 18.2 mm 13.2°
2
83%
11:00
17°
1009.4 hPa 52.3 mm 13.8°
3
66%
14:00
20°
1008.6 hPa 53.0 mm 13.6°
4
45%
17:00
18°
1007.7 hPa 40.0 mm 12.5°
3
28%
20:00
16°
1007.3 hPa 41.4 mm 11.9°
2
20%
23:00
15°
1007.9 hPa 42.7 mm 12.6°
2
51%
 07:27     19:28    Daglengte: 12:01 Donderdag 24 Sep
02:00
15°
1008.5 hPa 46.6 mm 13.3°
2
81%
05:00
14°
1009.6 hPa 48.0 mm 11.8°
2
84%
08:00
13°
1010.8 hPa 48.4 mm 10.4°
3
87%
11:00
15°
1010.3 hPa 48.5 mm 9.1°
3
55%
14:00
16°
1009.9 hPa 48.6 mm 6.9°
3
24%
17:00
14°
1008.6 hPa 49.2 mm 7.5°
2
51%
20:00
13°
1007.4 hPa 49.3 mm 7.8°
2
79%
23:00
12°
1008.0 hPa 49.9 mm 7.7°
2
85%
 07:29     19:26    Daglengte: 11:57 Vrijdag 25 Sep
02:00
12°
1008.6 hPa 51.3 mm 7.6°
2
90%
05:00
10°
1008.4 hPa 53.0 mm 6.6°
2
84%
08:00
Voelt als: 7.5°
1008.4 hPa 55.8 mm 5.6°
2
77%
11:00
10°
Voelt als: 8.2°
1009.2 hPa 58.9 mm 4.9°
3
58%
14:00
11°
1009.8 hPa 60.9 mm 4.3°
3
38%
17:00
Voelt als: 8.2°
1010.6 hPa 63.1 mm 4.6°
2
64%
20:00
Voelt als: 7.2°
1011.6 hPa 64.0 mm 4.8°
2
90%
23:00
Voelt als: 6.4°
1012.3 hPa 64.9 mm 4.3°
2
86%
 07:30     19:24    Daglengte: 11:54 Zaterdag 26 Sep
02:00
Voelt als: 5.6°
1013.0 hPa 65.6 mm 3.8°
2
82%
05:00
Voelt als: 5.4°
1013.2 hPa 65.9 mm 3.5°
2
55%
08:00
Voelt als: 5.5°
1013.4 hPa 66.9 mm 3.4°
1
27%
11:00
Voelt als: 6.4°
1013.0 hPa 70.6 mm 3.2°
2
46%
14:00
10°
Voelt als: 8.1°
1012.5 hPa 71.7 mm 2.8°
3
65%
17:00
Voelt als: 8.2°
1013.5 hPa 72.7 mm 3.7°
2
76%
20:00
Voelt als: 7.9°
1014.7 hPa 73.1 mm 4.2°
1
88%
23:00
1015.5 hPa 73.1 mm 4.8°
1
83%
 07:31     19:22    Daglengte: 11:51 Zondag 27 Sep
02:00
Voelt als: 7.3°
1016.3 hPa 73.1 mm 5.4°
1
79%
05:00
Voelt als: 7.0°
1016.7 hPa 73.1 mm 5.1°
1
54%
08:00
Voelt als: 6.3°
1017.2 hPa 147.2 mm 4.7°
1
29%
14:00
13°
1017.0 hPa 150.0 mm 2.9°
2
19%
20:00
11°
1016.6 hPa 151.7 mm 1.4°
1
78%
 07:32     19:20    Daglengte: 11:48 Maandag 28 Sep
02:00
10°
1017.9 hPa 152.4 mm 3.1°
1
91%
08:00
10°
Voelt als: 9.7°
1018.5 hPa 152.5 mm 4.7°
1
74%
14:00
15°
1018.1 hPa 155.4 mm 7.5°
3
51%
20:00
13°
1017.6 hPa 169.8 mm 9.1°
2
46%
 07:34     19:18    Daglengte: 11:44 Dinsdag 29 Sep
02:00
10°
Voelt als: 9.6°
1019.4 hPa 179.6 mm 8.5°
1
31%
08:00
10°
Voelt als: 9.7°
1019.8 hPa 180.5 mm 8.0°
1
62%
14:00
15°
1021.6 hPa 180.6 mm 6.6°
5
0%
20:00
10°
Voelt als: 7.9°
1022.9 hPa 180.6 mm 7.2°
3
0%
 07:35     19:16    Daglengte: 11:41 Woensdag 30 Sep
02:00
Voelt als: 5.1°
1023.5 hPa 180.6 mm 3.7°
1
0%
08:00
Voelt als: 6.1°
1018.5 hPa 0.6 mm 4.8°
1
36%
14:00
17°
1016.1 hPa 0.6 mm 8.9°
2
33%
20:00
10°
1016.0 hPa 2.6 mm 7.9°
0
44%
 07:36     19:14    Daglengte: 11:38 Donderdag 01 Okt
02:00
Voelt als: 7.4°
1016.0 hPa 1.1 mm 6.3°
2
41%
08:00
Voelt als: 6.9°
1015.5 hPa 1.1 mm 5.2°
1
42%
14:00
17°
1013.9 hPa 0.8 mm 10.1°
2
41%
20:00
11°
1014.4 hPa 1.2 mm 8.7°
1
48%
 07:38     19:12    Daglengte: 11:34 Vrijdag 02 Okt
02:00
Voelt als: 8.5°
1015.2 hPa 1.2 mm 7.4°
2
43%
08:00
Voelt als: 7.6°
1014.7 hPa 0.9 mm 6.2°
2
38%
14:00
18°
1013.5 hPa 1.1 mm 10.5°
1
41%
20:00
11°
1014.7 hPa 2.4 mm 9.2°
1
47%
 07:39     19:10    Daglengte: 11:31 Zaterdag 03 Okt
02:00
10°
Voelt als: 9.3°
1016.2 hPa 1.2 mm 7.9°
1
35%
08:00
Voelt als: 8.6°
1016.3 hPa 0.5 mm 7.4°
2
32%
14:00
20°
1014.9 hPa 0.4 mm 11.5°
1
32%
20:00
13°
1014.9 hPa 1.2 mm 10.5°
1
33%
 07:40     19:09    Daglengte: 11:29 Zondag 04 Okt
02:00
11°
1015.6 hPa 0.8 mm 9.0°
2
38%
08:00
10°
1015.2 hPa 0.5 mm 8.0°
1
45%
14:00
19°
1014.5 hPa 0.8 mm 11.8°
1
49%
20:00
13°
1015.2 hPa 2.5 mm 10.4°
0
49%
 07:42     19:07    Daglengte: 11:25 Maandag 05 Okt
02:00
11°
1016.2 hPa 0.9 mm 8.5°
1
43%
08:00
10°
1016.0 hPa 0.8 mm 7.9°
1
45%
  CAPE Lifted Index Hail Supercell Tornado SRH 3km CL BTM PRES CL TOP PRES Swiss DWD icon SMHI TS
 07:22     19:36    Daglengte: 12:14 Vandaag
11:00 304 J/kg -1.8 K 0 % 0 % 0 % 0 m²/s² 0 0 -1.08 3
12:00 248 J/kg -1.6 K 0 % 0 % 0 % 0 m²/s² 0 0 -0.79 3
13:00 312 J/kg -1.8 K 0 % 0 % 0 % 0 m²/s² 0 0 -1.05 80
14:00 475 J/kg -2.2 K 0 % 0 % 0 % 0 m²/s² 0 0 -1.39 80
15:00 915 J/kg -3.2 K 0 % 0 % 0 % 0 m²/s² 0 0 -2.09 3
16:00 1385 J/kg -5.3 K 0 % 0 % 0 % 0 m²/s² 0 0 -4.1 3
17:00 1397 J/kg -5.0 K 0 % 0 % 0 % 0 m²/s² 0 0 -3.89 3
18:00 858 J/kg -3.6 K 0 % 0 % 0 % 0 m²/s² 0 0 -2.28 3
19:00 240 J/kg -4.5 K 0 % 0 % 0 % 0 m²/s² 0 0 -3.87 3
20:00 48 J/kg -1.3 K 0 % 0 % 0 % 0 m²/s² 0 0 0.08 80
21:00 168 J/kg -1.5 K 0 % 0 % 0 % 0 m²/s² 0 0 -1.32 80
22:00 68 J/kg -0.7 K 0 % 0 % 0 % 0 m²/s² 0 0 -0.43 3
23:00 0 J/kg -0.4 K 0 % 0 % 0 % 0 m²/s² 0 0 0.41 95
 07:23     19:34    Daglengte: 12:11 Morgen
00:00 20 J/kg -0.5 K 0 % 0 % 0 % 0 m²/s² 0 0 0.25 95
01:00 2 J/kg 0.4 K 0 % 0 % 0 % 0 m²/s² 0 0 0.7 80
02:00 0 J/kg 1.0 K 0 % 0 % 0 % 0 m²/s² 0 0 1.39 3
03:00 0 J/kg 0.3 K 0 % 0 % 0 % 0 m²/s² 0 0 0.96 3
04:00 0 J/kg -0.2 K 0 % 0 % 0 % 0 m²/s² 0 0 0.43 3
05:00 0 J/kg 0.0 K 0 % 0 % 0 % 0 m²/s² 0 0 0.75 80
06:00 0 J/kg -0.1 K 0 % 0 % 0 % 0 m²/s² 0 0 0.56 80
07:00 0 J/kg 0.1 K 0 % 0 % 0 % 0 m²/s² 0 0 0.73 80
08:00 0 J/kg 0.1 K 0 % 0 % 0 % 0 m²/s² 0 0 0.91 80
09:00 0 J/kg 0.3 K 0 % 0 % 0 % 0 m²/s² 0 0 1.29 80
10:00 1 J/kg 0.1 K 0 % 0 % 0 % 0 m²/s² 0 0 1 80
11:00 33 J/kg -0.2 K 0 % 0 % 0 % 0 m²/s² 0 0 0.85 80
12:00 196 J/kg -1.1 K 0 % 0 % 0 % 0 m²/s² 0 0 0.01 3
13:00 415 J/kg -1.8 K 0 % 0 % 0 % 0 m²/s² 0 0 -0.81 3
14:00 647 J/kg -2.8 K 0 % 0 % 0 % 0 m²/s² 0 0 -1.54 3
15:00 913 J/kg -3.5 K 0 % 0 % 0 % 0 m²/s² 0 0 -1.91 2
16:00 885 J/kg -3.1 K 0 % 0 % 0 % 0 m²/s² 0 0 -1.24 3
17:00 944 J/kg -3.9 K 0 % 0 % 0 % 0 m²/s² 0 0 -2.76 80
18:00 866 J/kg -2.9 K 0 % 0 % 0 % 0 m²/s² 0 0 -2 80
19:00 957 J/kg -3.4 K 0 % 0 % 0 % 0 m²/s² 0 0 -2.77 3
20:00 650 J/kg -2.7 K 0 % 0 % 0 % 0 m²/s² 0 0 -1.95 3
21:00 333 J/kg -1.8 K 0 % 0 % 0 % 0 m²/s² 0 0 -1.17 3
22:00 172 J/kg -1.2 K 0 % 0 % 0 % 0 m²/s² 0 0 -0.39 2
23:00 145 J/kg -1.6 K 0 % 0 % 0 % 0 m²/s² 0 0 -0.94 3
 07:25     19:32    Daglengte: 12:07 Dinsdag 22 Sep
00:00 56 J/kg -1.2 K 0 % 0 % 0 % 0 m²/s² 0 0 -0.15 3
01:00 30 J/kg -1.1 K 0 % 0 % 0 % 0 m²/s² 0 0 -0.26 3
02:00 0 J/kg -0.9 K 0 % 0 % 0 % 0 m²/s² 0 0 -0.27 3
03:00 0 J/kg -0.9 K 0 % 0 % 0 % 0 m²/s² 0 0 -0.15 3
04:00 0 J/kg -0.9 K 0 % 0 % 0 % 0 m²/s² 0 0 -0.24 2
05:00 0 J/kg -1.4 K 0 % 0 % 0 % 0 m²/s² 0 0 -0.44 2
06:00 0 J/kg -1.4 K 0 % 0 % 0 % 0 m²/s² 0 0 -0.26 2
07:00 0 J/kg -1.2 K 0 % 0 % 0 % 0 m²/s² 0 0 -0.24 3
08:00 9 J/kg -1.0 K 0 % 0 % 0 % 0 m²/s² 0 0 -0.1 2
09:00 37 J/kg -0.8 K 0 % 0 % 0 % 0 m²/s² 0 0 -0.59 2
10:00 33 J/kg -0.8 K 0 % 0 % 0 % 0 m²/s² 0 0 -0.41 2
11:00 131 J/kg -1.1 K 0 % 0 % 0 % 0 m²/s² 0 0 -0.5 3
12:00 449 J/kg -2.0 K 0 % 0 % 0 % 0 m²/s² 0 0 -1.01 3
13:00 604 J/kg -2.6 K 0 % 0 % 0 % 0 m²/s² 0 0 -1.49 3
14:00 722 J/kg -3.2 K 0 % 0 % 0 % 0 m²/s² 0 0 -1.79 3
15:00 797 J/kg -3.2 K 0 % 0 % 0 % 0 m²/s² 0 0 -1.79 3
16:00 913 J/kg -3.3 K 0 % 0 % 0 % 0 m²/s² 0 0 -1.95 80
17:00 1099 J/kg -4.1 K 0 % 0 % 0 % 0 m²/s² 0 0 -3.02 95
18:00 903 J/kg -3.2 K 0 % 0 % 0 % 0 m²/s² 0 0 -1.25 80
19:00 184 J/kg -3.3 K 0 % 0 % 0 % 0 m²/s² 0 0 -2.49 3
20:00 11 J/kg -0.8 K 0 % 0 % 0 % 0 m²/s² 0 0 -0.59 3
21:00 22 J/kg 0.3 K 0 % 0 % 0 % 0 m²/s² 0 0 0.51 3
22:00 6 J/kg -0.2 K 0 % 0 % 0 % 0 m²/s² 0 0 0.31 3
23:00 5 J/kg 0.3 K 0 % 0 % 0 % 0 m²/s² 0 0 0.51 3
 07:26     19:30    Daglengte: 12:04 Woensdag 23 Sep
00:00 14 J/kg 0.9 K 0 % 0 % 0 % 0 m²/s² 0 0 0.93 3
01:00 12 J/kg 0.3 K 0 % 0 % 0 % 0 m²/s² 0 0 0.42 3
02:00 17 J/kg 0.9 K 0 % 0 % 0 % 0 m²/s² 0 0 1.02 3
03:00 20 J/kg 0.9 K 0 % 0 % 0 % 0 m²/s² 0 0 0.93 3
04:00 7 J/kg 0.6 K 0 % 0 % 0 % 0 m²/s² 0 0 0.72 3
05:00 16 J/kg 0.5 K 0 % 0 % 0 % 0 m²/s² 0 0 0.8 61
06:00 13 J/kg 0.5 K 0 % 0 % 0 % 0 m²/s² 0 0 0.92 80
07:00 10 J/kg 0.9 K 0 % 0 % 0 % 0 m²/s² 0 0 1.38 3
08:00 11 J/kg 0.7 K 0 % 0 % 0 % 0 m²/s² 0 0 1.54 61
09:00 27 J/kg 0.4 K 0 % 0 % 0 % 0 m²/s² 0 0 1.3
10:00 98 J/kg 0.2 K 0 % 0 % 0 % 0 m²/s² 0 0 0.89
Temp Baro Wind Neerslag
  EWN Forecast EWN WRFDA DWD ICON FMI HIRLAM MET Norway GFS
 07:22     19:36    Daglengte: 12:14 Vandaag
11:00 19.9° 1014.8 hPa 1.0 m/s 0.0 mm 21.0° 1014.0 hPa 0.3 m/s 0.0 mm 21.2° 1014.0 hPa 1.7 m/s -2.0 mm 20.2° 1014.7 hPa 1.6 m/s 0.0 mm 19.6° 1015.1 hPa 1.0 m/s 20.2° 1014.9 hPa 0.6 m/s
14:00 22.2° 1013.7 hPa 1.6 m/s 0.0 mm 23.9° 1012.7 hPa 2.6 m/s 0.0 mm 22.3° 1013.1 hPa 2.7 m/s 0.3 mm 24.0° 1013.5 hPa 1.7 m/s 0.0 mm 21.9° 1014.0 hPa 1.1 m/s 22.4° 1013.6 hPa 0.9 m/s
17:00 21.9° 1013.2 hPa 1.2 m/s 0.3 mm 23.2° 1012.5 hPa 1.4 m/s 0.7 mm 21.9° 1012.8 hPa 2.2 m/s 0.4 mm 24.0° 1013.0 hPa 1.1 m/s 0.0 mm 20.8° 1013.6 hPa 0.9 m/s 21.7° 1013.2 hPa 1.0 m/s
20:00 19.1° 1014.1 hPa 1.4 m/s 0.8 mm 19.9° 1012.4 hPa 2.7 m/s 3.1 mm 18.3° 1014.2 hPa 0.8 m/s 1.1 mm 21.0° 1013.9 hPa 1.2 m/s 0.0 mm 18.1° 1014.2 hPa 1.4 m/s 17.9° 1014.0 hPa 1.0 m/s
23:00 17.3° 1015.0 hPa 1.0 m/s 1.2 mm 16.9° 1013.0 hPa 0.6 m/s 4.7 mm 17.1° 1015.0 hPa 0.2 m/s 1.7 mm 19.4° 1014.9 hPa 2.0 m/s 0.0 mm 16.4° 1015.4 hPa 0.9 m/s 16.1° 1015.2 hPa 0.3 m/s
 07:23     19:34    Daglengte: 12:11 Morgen
02:00 16.5° 1015.1 hPa 1.4 m/s 2.3 mm 15.5° 1013.7 hPa 2.1 m/s 5.1 mm 16.5° 1015.1 hPa 0.3 m/s 2.1 mm 18.2° 1015.1 hPa 2.1 m/s 0.0 mm 15.6° 1015.5 hPa 1.1 m/s 15.3° 1015.3 hPa 0.3 m/s
05:00 16.0° 1014.7 hPa 1.1 m/s 1.0 mm 15.0° 1013.6 hPa 2.3 m/s 5.1 mm 15.9° 1014.7 hPa 0.4 m/s 1.5 mm 17.0° 1014.7 hPa 1.6 m/s 0.0 mm 15.1° 1015.1 hPa 1.0 m/s 14.7° 1015.1 hPa 0.5 m/s
08:00 15.7° 1015.4 hPa 0.9 m/s 0.0 mm 15.7° 1014.0 hPa 2.2 m/s 5.1 mm 15.4° 1015.1 hPa 0.5 m/s 1.9 mm 15.8° 1015.5 hPa 0.6 m/s 0.0 mm 15.5° 1015.8 hPa 0.9 m/s 15.1° 1015.6 hPa 0.5 m/s
11:00 18.8° 1015.9 hPa 1.1 m/s 0.7 mm 19.6° 1014.1 hPa 2.5 m/s 5.1 mm 17.1° 1016.1 hPa 1.0 m/s 2.3 mm 20.3° 1015.2 hPa 0.7 m/s 0.0 mm 18.7° 1016.2 hPa 1.3 m/s 19.5° 1015.6 hPa 1.1 m/s
14:00 21.1° 1014.8 hPa 1.8 m/s 0.5 mm 22.7° 1013.0 hPa 2.5 m/s 5.1 mm 19.4° 1015.3 hPa 1.7 m/s 0.5 mm 23.4° 1013.9 hPa 1.2 m/s 0.0 mm 20.7° 1015.0 hPa 1.6 m/s 23.8° 1014.5 hPa 1.1 m/s
17:00 21.2° 1013.9 hPa 2.0 m/s 0.7 mm 22.7° 1012.2 hPa 2.0 m/s 5.5 mm 19.9° 1014.4 hPa 2.1 m/s 0.1 mm 23.7° 1013.1 hPa 1.2 m/s 0.0 mm 21.0° 1014.0 hPa 1.7 m/s 23.1° 1014.1 hPa 0.4 m/s
20:00 19.2° 1014.6 hPa 0.9 m/s 0.0 mm 19.6° 1012.7 hPa 2.7 m/s 7.9 mm 18.0° 1015.0 hPa 0.8 m/s 0.3 mm 20.1° 1014.0 hPa 0.4 m/s 0.0 mm 19.4° 1014.7 hPa 0.5 m/s 17.0° 1014.5 hPa 0.7 m/s
23:00 16.6° 1015.0 hPa 1.3 m/s 0.0 mm 17.1° 1013.0 hPa 2.0 m/s 12.2 mm 16.3° 1015.4 hPa 0.4 m/s 0.4 mm 17.5° 1015.0 hPa 1.0 m/s 0.0 mm 15.6° 1015.1 hPa 1.4 m/s 15.1° 1015.4 hPa 0.2 m/s
 07:25     19:32    Daglengte: 12:07 Dinsdag 22 Sep
02:00 15.5° 1014.7 hPa 1.3 m/s 0.0 mm 15.5° 1012.5 hPa 2.6 m/s 12.6 mm 15.6° 1015.2 hPa 0.7 m/s 0.0 mm 16.3° 1014.3 hPa 1.4 m/s 0.0 mm 14.3° 1014.9 hPa 1.4 m/s 14.6° 1014.6 hPa 0.3 m/s
05:00 14.7° 1014.3 hPa 1.2 m/s 0.0 mm 14.7° 1011.6 hPa 2.5 m/s 12.6 mm 14.9° 1014.6 hPa 0.9 m/s 0.0 mm 13.8° 1014.5 hPa 1.2 m/s 14.2° 1013.9 hPa 0.7 m/s
08:00 14.6° 1014.2 hPa 0.8 m/s 0.0 mm 15.8° 1011.7 hPa 2.3 m/s 12.6 mm 14.4° 1014.5 hPa 0.9 m/s 0.0 mm 13.9° 1014.3 hPa 0.8 m/s 14.5° 1014.0 hPa 0.3 m/s
11:00 17.6° 1014.0 hPa 1.5 m/s 0.0 mm 16.3° 1012.0 hPa 1.6 m/s 17.3 mm 17.7° 1014.3 hPa 1.7 m/s 0.0 mm 18.5° 1013.9 hPa 1.6 m/s 18.0° 1013.1 hPa 1.2 m/s
14:00 20.6° 1012.3 hPa 2.1 m/s 1.7 mm 21.4° 1009.4 hPa 2.8 m/s 23.0 mm 19.9° 1012.5 hPa 2.1 m/s 0.0 mm 20.8° 1012.3 hPa 2.3 m/s 22.5° 1011.6 hPa 1.5 m/s
17:00 19.6° 1011.1 hPa 2.9 m/s 2.7 mm 22.0° 1007.7 hPa 4.5 m/s 23.2 mm 19.2° 1011.4 hPa 2.6 m/s 1.6 mm 19.0° 1011.4 hPa 2.9 m/s 21.3° 1009.8 hPa 2.0 m/s
20:00 17.0° 1011.2 hPa 1.8 m/s 1.3 mm 17.0° 1008.3 hPa 5.4 m/s 25.7 mm 17.1° 1011.2 hPa 1.2 m/s 0.5 mm 16.3° 1011.4 hPa 1.4 m/s 16.2° 1010.3 hPa 1.7 m/s
23:00 15.8° 1011.3 hPa 1.4 m/s 0.0 mm 15.6° 1009.1 hPa 2.0 m/s 35.6 mm 15.9° 1011.4 hPa 1.4 m/s 0.0 mm 15.7° 1011.3 hPa 1.5 m/s 14.6° 1011.0 hPa 1.6 m/s
 07:26     19:30    Daglengte: 12:04 Woensdag 23 Sep
02:00 15.1° 1011.2 hPa 1.7 m/s 0.0 mm 14.9° 1009.3 hPa 2.9 m/s 41.7 mm 15.4° 1011.3 hPa 1.8 m/s 0.1 mm 15.1° 1011.2 hPa 1.6 m/s 14.0° 1011.1 hPa 1.2 m/s
05:00 14.8° 1010.5 hPa 1.7 m/s 11.2 mm 14.8° 1008.4 hPa 3.0 m/s 48.4 mm 14.5° 1010.7 hPa 1.3 m/s 0.7 mm 14.9° 1010.8 hPa 1.6 m/s 14.5° 1010.5 hPa 2.0 m/s
08:00 14.6° 1010.2 hPa 1.7 m/s 18.2 mm 14.6° 1008.7 hPa 3.0 m/s 51.9 mm 14.2° 1010.6 hPa 1.1 m/s 1.4 mm 14.8° 1010.3 hPa 1.7 m/s 14.6° 1011.1 hPa 1.5 m/s
11:00 17.4° 1009.4 hPa 3.1 m/s 52.3 mm 17.5° 1009.0 hPa 4.2 m/s 52.3 mm 17.4° 1009.5 hPa 2.9 m/s 15.9° 1011.0 hPa 1.4 m/s
14:00 20.0° 1008.6 hPa 4.2 m/s 53.0 mm 19.8° 1008.1 hPa 5.0 m/s 53.0 mm 20.0° 1008.7 hPa 4.1 m/s 19.8° 1009.5 hPa 2.4 m/s
17:00 17.6° 1007.7 hPa 2.7 m/s 40.0 mm 17.3° 1007.6 hPa 2.7 m/s 21.0° 1008.5 hPa 2.9 m/s 40.0 mm
20:00 16.0° 1007.3 hPa 2.0 m/s 41.4 mm 16.0° 1007.1 hPa 2.0 m/s 15.4° 1009.6 hPa 1.5 m/s 41.4 mm
23:00 15.4° 1007.9 hPa 2.1 m/s 42.7 mm 15.5° 1007.6 hPa 2.1 m/s 14.6° 1011.3 hPa 2.5 m/s 42.7 mm
 07:27     19:28    Daglengte: 12:01 Donderdag 24 Sep
02:00 15.0° 1008.5 hPa 2.2 m/s 46.6 mm 15.0° 1008.1 hPa 2.2 m/s 14.7° 1012.3 hPa 2.6 m/s 46.6 mm
05:00 14.0° 1009.6 hPa 2.4 m/s 48.0 mm 14.0° 1009.4 hPa 2.5 m/s 13.6° 1012.8 hPa 1.8 m/s 48.0 mm
08:00 12.9° 1010.8 hPa 2.7 m/s 48.4 mm 13.0° 1010.6 hPa 2.8 m/s 12.3° 1013.0 hPa 1.1 m/s 48.4 mm
11:00 14.6° 1010.3 hPa 2.7 m/s 48.5 mm 14.4° 1010.2 hPa 2.8 m/s 16.9° 1011.9 hPa 1.8 m/s 48.5 mm
14:00 16.0° 1009.9 hPa 2.9 m/s 48.6 mm 15.8° 1009.8 hPa 2.7 m/s 18.4° 1011.2 hPa 4.8 m/s 48.6 mm
17:00 14.3° 1008.6 hPa 2.5 m/s 49.2 mm 14.2° 1008.5 hPa 2.4 m/s 16.1° 1009.8 hPa 4.0 m/s 49.2 mm
20:00 12.6° 1007.4 hPa 2.0 m/s 49.3 mm 12.5° 1007.2 hPa 2.0 m/s 13.8° 1009.4 hPa 1.7 m/s 49.3 mm
23:00 12.2° 1008.0 hPa 2.0 m/s 49.9 mm 12.1° 1007.9 hPa 2.0 m/s 13.1° 1009.8 hPa 1.7 m/s 49.9 mm
 07:29     19:26    Daglengte: 11:57 Vrijdag 25 Sep
02:00 11.7° 1008.6 hPa 2.2 m/s 51.3 mm 11.7° 1008.5 hPa 2.1 m/s 11.8° 1009.3 hPa 3.0 m/s 51.3 mm
05:00 10.2° 1008.4 hPa 2.2 m/s 53.0 mm 10.2° 1008.5 hPa 2.2 m/s 10.6° 1008.4 hPa 3.3 m/s 53.0 mm
08:00 8.8° 1008.4 hPa 2.3 m/s 55.8 mm 8.7° 1008.4 hPa 2.2 m/s 9.3° 1008.9 hPa 3.9 m/s 55.8 mm
11:00 9.6° 1009.2 hPa 2.8 m/s 58.9 mm 9.8° 1009.1 hPa 2.8 m/s 7.9° 1010.1 hPa 2.8 m/s 58.9 mm
14:00 10.7° 1009.8 hPa 3.3 m/s 60.9 mm 10.9° 1009.8 hPa 3.3 m/s 8.1° 1010.0 hPa 3.0 m/s 60.9 mm
17:00 9.5° 1010.6 hPa 2.5 m/s 63.1 mm 9.5° 1010.6 hPa 2.4 m/s 8.9° 1010.1 hPa 3.2 m/s 63.1 mm
20:00 7.9° 1011.6 hPa 1.6 m/s 64.0 mm 8.1° 1011.5 hPa 1.5 m/s 6.0° 1012.4 hPa 2.2 m/s 64.0 mm
23:00 7.4° 1012.3 hPa 1.7 m/s 64.9 mm 7.5° 1012.1 hPa 1.6 m/s 6.3° 1014.1 hPa 2.7 m/s 64.9 mm
 07:30     19:24    Daglengte: 11:54 Zaterdag 26 Sep
02:00 6.8° 1013.0 hPa 1.9 m/s 65.6 mm 6.9° 1012.8 hPa 1.8 m/s 6.2° 1014.7 hPa 3.2 m/s 65.6 mm
05:00 6.4° 1013.2 hPa 1.6 m/s 65.9 mm 6.5° 1013.0 hPa 1.5 m/s 5.8° 1014.4 hPa 3.5 m/s 65.9 mm
08:00 6.1° 1013.4 hPa 1.3 m/s 66.9 mm 6.1° 1013.3 hPa 1.1 m/s 5.7° 1014.8 hPa 3.0 m/s 66.9 mm
11:00 7.7° 1013.0 hPa 2.2 m/s 70.6 mm 8.0° 1012.9 hPa 2.1 m/s 5.3° 1014.0 hPa 3.0 m/s 70.6 mm
14:00 9.7° 1012.5 hPa 3.1 m/s 71.7 mm 9.8° 1012.5 hPa 3.1 m/s 8.3° 1012.4 hPa 2.9 m/s 71.7 mm
17:00 9.0° 1013.5 hPa 1.9 m/s 72.7 mm 8.9° 1013.7 hPa 1.9 m/s 9.8° 1011.3 hPa 1.8 m/s 72.7 mm
20:00 7.9° 1014.7 hPa 0.7 m/s 73.1 mm 8.1° 1014.9 hPa 0.7 m/s 6.0° 1012.3 hPa 0.8 m/s 73.1 mm
23:00 7.6° 1015.5 hPa 0.8 m/s 73.1 mm 7.8° 1015.8 hPa 0.8 m/s 4.6° 1012.8 hPa 0.7 m/s 73.1 mm
 07:31     19:22    Daglengte: 11:51 Zondag 27 Sep
02:00 7.3° 1016.3 hPa 0.9 m/s 73.1 mm 7.6° 1016.7 hPa 0.9 m/s 4.1° 1011.5 hPa 1.0 m/s 73.1 mm
05:00 7.1° 1016.7 hPa 1.0 m/s 73.1 mm 7.2° 1017.2 hPa 1.1 m/s 5.1° 1010.1 hPa 0.3 m/s 73.1 mm
08:00 6.8° 1017.2 hPa 1.2 m/s 74.0 mm 6.9° 1017.8 hPa 1.3 m/s 5.2° 1010.8 hPa 0.3 m/s 74.0 mm
14:00 12.8° 1017.0 hPa 1.6 m/s 75.0 mm 12.8° 1017.7 hPa 1.6 m/s 12.2° 1008.9 hPa 1.1 m/s 75.0 mm
20:00 11.0° 1016.6 hPa 0.9 m/s 76.2 mm 11.4° 1017.1 hPa 0.9 m/s 6.8° 1011.1 hPa 0.6 m/s 76.2 mm
 07:32     19:20    Daglengte: 11:48 Maandag 28 Sep
02:00 9.6° 1017.9 hPa 1.0 m/s 76.2 mm 10.1° 1018.3 hPa 1.0 m/s 3.6° 1013.6 hPa 0.7 m/s 76.2 mm
08:00 9.9° 1018.5 hPa 1.4 m/s 76.2 mm 10.3° 1018.8 hPa 1.3 m/s 5.4° 1015.0 hPa 2.2 m/s 76.2 mm
14:00 14.5° 1018.1 hPa 2.7 m/s 78.9 mm 15.2° 1018.4 hPa 2.7 m/s 7.1° 1014.9 hPa 3.1 m/s 78.9 mm
20:00 12.5° 1017.6 hPa 1.8 m/s 86.8 mm 13.0° 1017.6 hPa 1.8 m/s 7.2° 1018.1 hPa 2.2 m/s 86.8 mm
 07:34     19:18    Daglengte: 11:44 Dinsdag 29 Sep
02:00 9.8° 1019.4 hPa 1.3 m/s 90.3 mm 10.0° 1019.3 hPa 1.4 m/s 7.6° 1020.1 hPa 0.6 m/s 90.3 mm
08:00 9.7° 1019.8 hPa 1.0 m/s 90.3 mm 10.0° 1019.6 hPa 1.0 m/s 6.4° 1021.8 hPa 1.4 m/s 90.3 mm
14:00 15.3° 1021.6 hPa 4.6 m/s 90.3 mm 15.3° 1021.6 hPa 4.6 m/s 90.3 mm
20:00 9.6° 1022.9 hPa 3.2 m/s 90.3 mm 9.6° 1022.9 hPa 3.2 m/s 90.3 mm
 07:35     19:16    Daglengte: 11:41 Woensdag 30 Sep
02:00 6.0° 1023.5 hPa 1.5 m/s 90.3 mm 6.0° 1023.5 hPa 1.5 m/s 90.3 mm
08:00 6.9° 1018.5 hPa 1.5 m/s 0.6 mm
14:00 16.6° 1016.1 hPa 1.9 m/s 0.6 mm
20:00 10.0° 1016.0 hPa 0.4 m/s 2.6 mm
 07:36     19:14    Daglengte: 11:38 Donderdag 01 Okt
02:00 8.2° 1016.0 hPa 1.6 m/s 1.1 mm
08:00 7.5° 1015.5 hPa 1.5 m/s 1.1 mm
14:00 17.1° 1013.9 hPa 2.5 m/s 0.8 mm
20:00 11.0° 1014.4 hPa 0.7 m/s 1.2 mm
 07:38     19:12    Daglengte: 11:34 Vrijdag 02 Okt
02:00 9.0° 1015.2 hPa 1.5 m/s 1.2 mm
08:00 8.2° 1014.7 hPa 1.6 m/s 0.9 mm
14:00 17.7° 1013.5 hPa 1.2 m/s 1.1 mm
20:00 11.3° 1014.7 hPa 0.6 m/s 2.4 mm
 07:39     19:10    Daglengte: 11:31 Zaterdag 03 Okt
02:00 9.7° 1016.2 hPa 1.5 m/s 1.2 mm
08:00 9.1° 1016.3 hPa 1.6 m/s 0.5 mm
14:00 19.7° 1014.9 hPa 1.2 m/s 0.4 mm
20:00 12.7° 1014.9 hPa 0.6 m/s 1.2 mm
 07:40     19:09    Daglengte: 11:29 Zondag 04 Okt
02:00 11.1° 1015.6 hPa 1.7 m/s 0.8 mm
08:00 10.2° 1015.2 hPa 1.4 m/s 0.5 mm
14:00 19.2° 1014.5 hPa 1.2 m/s 0.8 mm
20:00 12.6° 1015.2 hPa 0.4 m/s 2.5 mm
 07:42     19:07    Daglengte: 11:25 Maandag 05 Okt
02:00 10.6° 1016.2 hPa 1.1 m/s 0.9 mm
08:00 9.9° 1016.0 hPa 1.0 m/s 0.8 mm
FMI Hirlam - 7.5 km EWN WRFDA - 12 km DWD ICON - 7 km GFS - 25 km Basiskaart






























































Updatetijd (Europe/Brussels) Resolutie Lengte Stap
FMI Hirlam 07:15, 13:15, 19:15, 01:15 7.5 km 49h 1h
EWN WRFDA 10:15, 16:15, 22:15, 04:15 12 km 73h 1h
DWD ICON 06:15, 12:15, 18:15, 00:15 7 km 75h 1h
GFS 08:15, 14:15, 20:15, 02:15 25 km 237h 3h
30+ mm
25-30 mm
20-25 mm
15-20 mm
10-15 mm
6-10 mm
4-6 mm
2-4 mm
1-2 mm
0.5-1 mm
0.2-0.5 mm
0.1-0.2 mm
30+ mm
25-30 mm
20-25 mm
15-20 mm
10-15 mm
6-10 mm
4-6 mm
2-4 mm
1-2 mm
0.5-1 mm
0.2-0.5 mm
0.1-0.2 mm
Sneeuwval
Natte sneeuw
Hagel
Vorst
30+ mm
25-30 mm
20-25 mm
15-20 mm
10-15 mm
6-10 mm
4-6 mm
2-4 mm
1-2 mm
0.5-1 mm
0.2-0.5 mm
0.1-0.2 mm
Sneeuwval
Natte sneeuw
Hagel
Vorst
Onweer
50 mm
40 mm
30 mm
26 mm
22 mm
18 mm
14 mm
10 mm
9 mm
8 mm
7 mm
6 mm
5 mm
4.5 mm
4 mm
3.5 mm
3 mm
2.5 mm
2 mm
1.5 mm
1 mm
0.8 mm
0.6 mm
0.4 mm
0.2 mm
0.05 mm
35°
30°
25°
20°
15°
10°
-5°
-10°
-15°
-20°
-25°
-30°
-35°
33> m/s
29 m/s
25 m/s
21 m/s
17 m/s
14 m/s
11 m/s
8 m/s
5 m/s
3 m/s
0 m/s
2600 J/kg
2400 J/kg
2200 J/kg
2000 J/kg
1800 J/kg
1600 J/kg
1400 J/kg
1200 J/kg
1000 J/kg
800 J/kg
600 J/kg
400 J/kg
200 J/kg
70 dBZ
65 dBZ
60 dBZ
55 dBZ
50 dBZ
45 dBZ
40 dBZ
35 dBZ
30 dBZ
25 dBZ
20 dBZ
15 dBZ
10 dBZ
5 dBZ
-1 K
-2 K
-3 K
-4 K
-5 K
-6 K
-7 K
-8 K
-9 K
950 m²/s²
900 m²/s²
850 m²/s²
800 m²/s²
750 m²/s²
700 m²/s²
650 m²/s²
600 m²/s²
550 m²/s²
500 m²/s²
450 m²/s²
400 m²/s²
350 m²/s²
300 m²/s²
250 m²/s²
200 m²/s²
150 m²/s²
100 m²/s²
46 m/s
44 m/s
42 m/s
40 m/s
38 m/s
36 m/s
34 m/s
32 m/s
30 m/s
28 m/s
26 m/s
24 m/s
22 m/s
20 m/s
16 m/s
12 m/s
8 m/s
4 m/s
30 m/s
28 m/s
26 m/s
24 m/s
22 m/s
20 m/s
18 m/s
16 m/s
14 m/s
12 m/s